Location: Crescent City Mobile Home Park
(42.8333°N, 73.7422°W)
Time: 02:03:01
(UTC+00:00)

Daily predictions for brighter satellites

Satellite Brightness Start Highest point End
(mag) Time Altitude Azimuth Time Altitude Azimuth Time Altitude Azimuth
USA 238 DEB 4.1 00:46:35 10° NW 00:53:54 76° WSW 01:01:29 10° SSE
USA 238 4.1 00:46:41 10° NW 00:54:00 76° WSW 01:01:36 10° SSE
IRIS 4.0 00:53:17 10° W 00:55:45 62° S 00:59:08 10° E
Cosmos 44 Rocket 4.2 00:51:52 10° S 00:56:18 30° ESE 01:00:50 10° NE
NOSS 7 (H) 4.4 00:54:41 10° SW 00:58:26 86° NW 01:01:28 10° NE
ISS -1.1 00:56:08 10° NW 00:58:33 18° N 01:00:59 10° NE
IRS-1A Rocket 4.3 00:57:44 10° SSE 01:03:17 76° ENE 01:08:47 10° NNW
Ariane Rocket 3.0 00:59:15 10° SSE 01:04:18 72° ENE 01:09:23 10° N
ERS-2 2.2 01:01:44 10° NNE 01:05:19 56° E 01:08:54 10° S
Helios 1A Rocket 3.7 01:04:17 10° S 01:08:11 51° W 01:12:10 10° NNW
OAO 2 Rocket 4.2 01:05:45 10° WSW 01:10:16 33° S 01:14:32 11° ESE
Cosmos 1818 4.2 01:06:22 10° SW 01:11:45 62° NW 01:17:13 10° NNE
USA 276 4.4 01:12:45 10° WNW 01:15:27 25° NNW 01:18:08 10° NE
Cosmos 2221 3.1 01:11:28 10° N 01:15:30 39° ENE 01:19:20 11° SE
Cosmos 1242 Rocket 2.5 01:12:32 10° N 01:16:07 64° ENE 01:19:39 10° SSE
MOS 1 4.4 01:11:05 10° SSE 01:16:45 82° WSW 01:22:27 10° NNW
USA 307 3.5 01:13:32 10° WNW 01:17:40 50° SW 01:21:34 11° SSE
BREEZE-M DEB (TANK) 3.2 01:16:01 10° SSW 01:19:00 44° SE 01:27:25 10° ENE
Cosmos 1697 Rocket 2.9 01:17:07 10° NNW 01:22:44 60° ENE 01:27:44 13° SE
Meteor 2-13 Rocket 4.4 01:20:50 10° S 01:26:57 78° E 01:33:04 10° N
Terra 3.8 01:26:02 10° E 01:28:46 15° ENE 01:31:29 10° NNE
Cosmos 2082 Rocket 2.5 01:23:56 10° S 01:29:10 43° ESE 01:34:29 10° NE
ERBS 3.7 01:27:43 10° NNW 01:30:32 27° NE 01:32:57 12° E
IGS 5A 3.4 01:27:58 10° SSE 01:32:06 88° E 01:36:17 10° NNW
Cosmos 1833 Rocket 2.7 01:27:17 10° SSW 01:32:55 88° WNW 01:38:37 10° NNE
Cosmos 1953 Rocket 4.4 01:28:56 10° SSW 01:33:19 54° W 01:37:44 10° N
Cosmos 1606 3.2 01:30:12 10° N 01:33:47 40° ENE 01:36:14 18° SE
SPOT 3 Rocket 3.6 01:28:49 11° SSE 01:33:54 72° ENE 01:39:07 10° N
USA 305 4.1 01:30:33 10° WNW 01:34:19 32° SW 01:37:38 12° SSE
USA 308 4.0 01:30:33 10° WNW 01:34:27 36° SW 01:37:46 13° SSE
Cosmos 773 Rocket 4.0 01:32:59 10° S 01:38:07 61° ESE 01:43:14 10° NNE
Cosmos 2279 Rocket 4.2 01:39:46 10° N 01:45:57 75° W 01:52:07 10° S
Cosmos 2151 3.8 01:47:17 21° SE 01:49:14 31° E 01:53:01 10° NNE
Landsat 7 4.1 01:49:11 11° S 01:53:45 65° WSW 01:58:29 10° NNW
Cosmos 1842 Rocket 3.7 01:51:14 10° N 01:55:43 80° W 01:59:20 16° S
GP-B 4.1 01:51:50 10° NNE 01:55:47 30° E 01:57:25 23° ESE
Cosmos 2058 3.8 01:51:48 10° SSW 01:55:51 50° W 01:59:57 10° N
COSMOS 2406 3.7 01:50:32 10° SW 01:56:09 64° WNW 02:01:50 10° NNE
Cosmos 1825 4.2 01:53:59 10° SW 01:57:16 29° WNW 02:00:35 10° NNW
Meteor 2-3 Rocket 4.4 01:54:12 20° SE 01:57:19 35° E 02:02:26 10° NNE
Cosmos 2369 3.7 01:51:53 10° NNW 01:57:34 80° ENE 02:01:22 22° SSE
ERS-1 Rocket 3.5 02:00:52 23° SE 02:03:35 45° ENE 02:08:22 10° N
Spot 2 Rocket 3.6 02:01:34 23° SSE 02:04:47 67° ENE 02:09:53 10° N
Cosmos 1076 Rocket 3.4 02:02:51 14° S 02:06:35 88° ESE 02:10:58 10° N
ATLAS 2AS CENTAUR R/B 3.2 02:00:40 10° SW 02:08:35 75° NW 02:16:22 10° NNE
Cosmos 1980 Rocket 2.2 02:03:14 10° NNW 02:08:52 72° ENE 02:12:06 26° SE
Resurs 01 Rocket 3.0 02:09:05 10° SSW 02:13:06 34° W 02:17:11 10° NNW
Nadezhda 4 Rocket 4.0 02:08:21 10° S 02:14:30 86° W 02:20:45 10° N
Cosmos 2322 Rocket 3.9 02:11:47 10° N 02:15:58 21° NE 02:19:11 13° E
Cosmos 1538 Rocket 3.9 02:13:44 14° S 02:18:14 69° ESE 02:23:24 10° NNE
Cosmos 158 Rocket 4.1 02:18:29 26° SSE 02:21:04 51° ESE 02:26:08 10° NNE
RESURS DK-1 2.6 02:19:57 10° SSW 02:24:06 69° WNW 02:28:15 10° NNE
Cosmos 2098 Rocket 3.1 02:22:42 22° SW 02:24:13 44° W 02:27:17 10° N
USA 267 3.2 02:18:53 10° NE 02:25:22 63° SE 02:31:51 10° SW
USA 245 4.5 02:22:59 19° S 02:27:02 61° WSW 02:31:52 10° NNW
Meteor 2-19 Rocket 4.3 02:22:44 18° S 02:27:18 82° E 02:33:23 10° N
Cosmos 1271 Rocket 3.3 02:23:32 10° N 02:27:20 42° ENE 02:28:02 38° ESE
ATLAS 3B R/B 2.9 02:21:29 10° NNW 02:28:36 72° NE 02:32:46 28° SE
BREEZE-M DEB (TANK) 4.0 02:24:57 10° WNW 02:28:42 84° NNE 02:36:58 19° ESE
Cosmos 1633 3.9 02:29:08 12° SW 02:32:06 36° WNW 02:35:28 10° N
SPOT 1/Viking Rocket 4.4 02:28:26 17° SSW 02:32:10 45° W 02:37:11 10° NNW
ISS -1.9 02:33:12 10° NW 02:36:10 27° NNE 02:37:38 20° ENE
Cosmos 1933 3.2 02:36:03 10° N 02:40:08 86° E 02:41:03 53° SSE
Cosmos 1428 Rocket 4.4 02:37:00 28° S 02:40:25 74° E 02:46:32 10° NNE
ARIANE 5 R/B 2.9 02:38:33 33° S 02:40:26 65° WSW 02:44:54 10° NNW
SL-16 R/B 3.0 02:36:08 10° N 02:41:26 39° ENE 02:43:41 28° ESE
SPOT 5 2.6 02:44:08 42° S 02:45:31 72° WSW 02:49:52 10° NNW
Cosmos 1553 Rocket 4.4 02:40:58 10° N 02:46:47 46° ENE 02:48:47 34° ESE
Cosmos 304 Rocket 3.9 02:42:23 10° NNW 02:47:10 63° ENE 02:48:21 46° SE
USA 276 4.3 02:49:41 10° NW 02:52:18 23° N 02:53:40 18° NE
USA 234 3.9 02:53:40 18° E 02:58:26 49° NNE 03:04:42 10° NW
Meteor 1-26 Rocket 4.3 02:56:12 10° NNW 03:02:13 79° W 03:04:28 40° S
Cosmos 371 Rocket 3.9 02:59:10 10° NNW 03:03:48 49° WSW 03:05:07 38° SSW
Cosmos 923 Rocket 3.9 03:03:16 44° S 03:04:59 78° ESE 03:10:21 10° NNE
Terra 2.0 03:04:43 46° SSW 03:05:58 66° WSW 03:10:43 10° NNW
ERBS 4.0 03:03:42 10° WNW 03:05:39 25° W 03:05:39 25° W
Cosmos 1515 Rocket 4.4 03:06:18 10° N 03:10:25 36° ENE 03:10:27 36° ENE
Cosmos 1862 3.9 03:12:07 45° ENE 03:12:07 45° ENE 03:15:23 10° NNE
Cosmos 2082 Rocket 4.0 03:08:28 10° WSW 03:13:23 30° NW 03:18:21 10° N
S3M 4.4 03:07:59 10° N 03:14:11 51° ENE 03:15:54 41° ESE
Cosmos 2278 4.5 03:09:13 10° NW 03:14:31 42° WSW 03:16:22 32° SSW
ALOS 2 4.4 03:18:53 19° ENE 03:19:13 19° ENE 03:22:21 10° NNE
Cosmos 2056 Rocket 4.2 03:14:09 10° N 03:19:18 43° ENE 03:20:20 39° E
Cosmos 1766 Rocket 3.6 03:18:52 62° SW 03:19:27 74° W 03:23:53 10° N
Meteor 2-14 Rocket 4.3 03:17:55 47° S 03:19:50 80° E 03:26:01 10° N
Cosmos 1812 3.0 03:15:59 10° N 03:19:23 61° NE 03:19:23 61° NE
Cosmos 1782 3.3 03:19:11 10° NNW 03:23:05 50° W 03:23:15 50° WSW
Cosmos 2333 Rocket 4.0 03:20:52 10° N 03:25:08 21° NE 03:27:40 16° E
Gbstr 26 Del rocket 3.7 03:23:55 10° NW 03:27:40 45° NNE 03:28:19 41° NE
Cosmos 2360 Rocket 2.9 03:26:19 10° NNW 03:31:42 43° ENE 03:33:01 37° E
Cosmos 1328 Rocket 3.6 03:29:30 10° NNW 03:33:58 70° W 03:34:03 69° WSW
Cosmos 2112 Rocket 4.0 03:38:50 59° SW 03:39:52 82° WNW 03:45:12 10° NNE
Cosmos 1371 Rocket 4.0 03:34:57 10° NNW 03:40:20 73° ENE 03:40:56 65° ESE
Cosmos 1680 Rocket 3.7 03:40:31 46° SW 03:41:59 67° WNW 03:47:15 10° NNE
Cosmos 1151 Rocket 3.9 03:40:26 10° NNW 03:44:29 39° W 03:44:42 39° W
Cosmos 1980 Rocket 4.2 03:48:51 10° WNW 03:52:11 16° W 03:53:53 14° WSW
BREEZE-M DEB (TANK) 3.9 03:49:28 10° WNW 03:53:56 52° SSW 03:55:45 45° S
IRIDIUM 106 4.3 03:51:12 10° N 03:56:24 65° E 03:56:30 65° E
Cosmos 2322 Rocket 2.1 03:54:57 10° NNW 04:00:34 68° WSW 04:00:59 65° SW
Cosmos 1500 Rocket 3.8 04:05:32 65° N 04:05:32 65° N 04:09:19 10° N
USA 267 4.2 04:02:03 10° NE 04:08:14 47° NNW 04:14:26 10° W
ISS -1.0 04:09:51 10° WNW 04:10:34 15° WNW 04:10:34 15° WNW
Cosmos 2315 Rocket 3.9 04:10:19 10° N 04:16:39 83° E 04:17:33 67° SSE
ATLAS 3B R/B 4.0 04:13:04 10° WNW 04:18:47 26° WSW 04:20:00 25° SW
Cosmos 292 Rocket 3.9 04:14:06 10° NNW 04:18:26 72° N 04:18:26 72° N
Cosmos 2237 4.3 04:14:36 10° NNW 04:20:15 63° WSW 04:20:24 63° WSW
Spot 4 4.2 04:22:24 56° W 04:22:24 56° W 04:26:48 10° NNW
Meteor 1-27 Rocket 3.6 04:16:36 10° NNW 04:22:13 80° W 04:22:32 76° SW
Cosmos 1624 Rocket 4.3 04:17:21 10° NNW 04:22:13 53° W 04:22:13 53° W
COSMOS 2428 3.7 04:17:38 10° N 04:22:56 37° ENE 04:24:20 32° E
Cosmos 1743 Rocket 4.1 04:23:27 55° NW 04:23:27 55° NW 04:27:25 10° N
Cosmos 2333 4.3 04:17:26 10° NNW 04:23:00 63° ENE 04:23:31 60° E
Cosmos 2228 Rocket 3.5 04:18:56 10° N 04:22:34 60° N 04:22:34 60° N
SL-16 R/B 3.2 04:20:26 10° NW 04:25:25 32° WSW 04:25:32 32° WSW
Cosmos 2219 Rocket 2.7 04:23:19 10° NNW 04:28:45 49° ENE 04:29:33 45° E
Thor Agena Rocket 4.3 04:30:37 10° NNE 04:34:44 40° ENE 04:34:44 40° ENE
Cosmos 1420 Rocket 4.2 04:32:17 10° NNW 04:37:14 60° W 04:37:14 60° W
Cosmos 1633 Rocket 4.3 04:41:08 35° NE 04:41:08 35° NE 04:44:10 10° NNE
USA 234 3.2 04:41:00 59° SSW 04:41:21 59° SW 04:47:49 10° NW
COSMOS 2455 2.7 04:44:29 77° SE 04:44:37 78° ESE 04:50:39 10° NNE
Sich 1 3.7 04:45:43 55° N 04:45:43 55° N 04:49:12 10° N
Cosmos 489 Rocket 4.4 04:48:18 70° SE 04:48:43 73° ESE 04:55:04 10° NNE
BREEZE-M DEB (TANK) 3.8 04:37:08 10° WSW 04:49:05 78° SSE 04:53:01 10° ENE
Nimbus 7 Rocket 4.3 04:45:30 10° NNE 04:51:34 87° WNW 04:52:08 75° SSW
Cosmos 1452 Rocket 3.5 04:47:04 10° NNW 04:52:03 80° NNW 04:52:03 80° NNW
Meteor 1-20 Rocket 4.1 04:53:51 74° W 04:54:01 75° W 04:59:40 10° N
ALOS 2 3.8 04:56:16 36° WNW 04:56:16 36° WNW 04:59:26 10° NNW
Meteor 1-18 Rocket 4.3 04:55:19 10° N 05:01:12 70° ENE 05:01:37 67° ESE
Cosmos 1745 Rocket 4.3 05:00:51 51° ESE 05:01:26 53° E 05:07:28 10° NNE
Cosmos 1862 Rocket 4.4 05:00:05 10° N 05:03:33 47° NE 05:03:33 47° NE
Geosat 4.0 05:05:50 79° NNE 05:05:50 79° NNE 05:10:44 10° NNW
ATLAS 5 CENTAUR R/B 3.3 05:04:13 10° NNW 05:09:31 43° NE 05:12:56 24° ESE
Cosmos 2333 Rocket 2.2 05:04:19 10° NNW 05:09:38 66° W 05:09:38 66° W
Cosmos 1707 Rocket 4.4 05:10:20 10° NNW 05:13:31 44° NW 05:13:31 44° NW
Cosmos 2360 Rocket 3.5 05:10:44 10° NW 05:14:45 27° W 05:14:45 27° W
Lacrosse 5 3.9 05:18:45 17° E 05:18:45 17° E 05:20:35 10° ENE
SL-16 R/B 4.4 05:15:03 11° ESE 05:19:16 23° ENE 05:23:54 10° N
Resurs 1-4 Rocket 4.0 05:18:15 10° NE 05:21:51 18° E 05:22:21 18° E
Cosmos 1110 Rocket 4.0 05:19:00 10° NNW 05:24:10 84° NNW 05:24:10 84° NNW
Nadezhda 1 Rocket 4.0 05:17:57 10° N 05:24:23 79° E 05:25:20 65° SE
Cosmos 2322 4.1 05:19:31 10° NNW 05:24:37 51° W 05:24:37 51° W
Cosmos 1386 Rocket 4.4 05:26:53 70° SSE 05:27:42 83° E 05:34:08 10° N
NOSS 3-1 (C) 4.1 05:21:44 10° NW 05:29:22 67° WSW 05:31:18 53° S
Meteor 1-19 Rocket 4.4 05:26:18 10° NNW 05:31:45 55° W 05:31:45 55° W
Meteor 1-14 Rocket 4.0 05:33:56 80° WSW 05:34:06 81° WNW 05:39:43 10° N
Cosmos 1331 Rocket 4.0 05:29:11 10° NNW 05:34:07 76° WNW 05:34:07 76° WNW
Cosmos 2297 Rocket 2.6 05:37:04 49° ESE 05:37:05 49° ESE 05:42:32 10° NE
ARGOS Delta rocket 4.4 05:34:36 10° NNE 05:38:47 48° ENE 05:38:47 48° ENE
USA 229 DEB 3.8 05:33:26 10° NW 05:40:51 84° WSW 05:43:12 49° SSE
USA 229 3.8 05:33:31 10° NW 05:40:57 84° WSW 05:43:21 49° SSE
Cosmos 2242 Rocket 4.3 05:38:38 10° N 05:42:35 48° ENE 05:42:35 48° ENE
Cosmos 2237 Rocket 2.6 05:37:32 10° NNW 05:43:08 57° ENE 05:44:36 44° ESE
Cosmos 2227 Rocket 2.7 05:47:43 44° ESE 05:47:55 44° ESE 05:53:16 10° NE
PSLV R/B 4.5 05:43:46 10° N 05:48:12 44° WNW 05:48:12 44° WNW
ASTEX 1 4.0 05:50:13 46° E 05:50:40 47° ENE 05:55:23 10° N
Meteor 2-4 Rocket 3.9 05:54:04 10° NNW 05:59:54 58° W 06:00:14 57° WSW
CZ-2D R/B 3.0 05:55:13 10° NNE 06:00:15 39° E 06:01:02 37° ESE
NOSS 3-1 (A) 4.1 05:53:36 10° NW 06:01:16 68° WSW 06:04:01 46° S
Cosmos 1269 Rocket 3.8 06:01:46 82° WSW 06:01:57 85° WNW 06:07:16 10° NNE
ADEOS II 4.0 05:58:31 10° NE 06:02:15 19° E 06:03:49 17° ESE
Cosmos 1869 Rocket 4.1 06:02:38 52° E 06:02:38 52° E 06:06:46 10° NNE
Cosmos 1743 4.2 06:04:42 30° ENE 06:04:42 30° ENE 06:07:35 10° NNE
Cosmos 1340 Rocket 3.6 06:07:38 46° NNW 06:07:38 46° NNW 06:10:34 10° N
SL-16 R/B 3.7 06:01:42 10° N 06:06:48 33° NE 06:11:51 10° ESE
COSMOS 2428 3.7 06:02:03 10° NW 06:06:19 32° W 06:06:19 32° W
Cosmos 2219 Rocket 3.6 06:07:56 10° NW 06:11:15 23° W 06:11:15 23° W
Cosmos 2263 Rocket 4.5 06:12:47 10° ESE 06:15:03 13° E 06:17:25 10° ENE
Cosmos 1933 Rocket 4.2 06:16:00 45° WNW 06:16:00 45° WNW 06:19:55 10° N
Timation 1 Rocket 4.5 06:15:47 53° SSE 06:16:45 60° ESE 06:22:38 10° NNE
Helios 1A 3.2 06:17:20 67° NNW 06:17:20 67° NNW 06:21:02 10° NNW
Intercosmos 25 Rocket 4.1 06:20:35 45° NNW 06:20:35 45° NNW 06:23:53 10° N
Okean 3 3.6 06:15:30 10° N 06:19:37 69° ENE 06:19:37 69° ENE
Okean 1-7 3.5 06:17:30 10° NNW 06:20:56 50° NW 06:20:56 50° NW
Cosmos 1302 Rocket 4.1 06:18:42 10° NNW 06:23:41 59° W 06:23:41 59° W
Cosmos 1992 Rocket 4.4 06:18:49 10° NNW 06:23:59 59° ENE 06:25:52 37° SE
YAOGAN 11 4.5 06:27:15 54° WNW 06:27:15 54° WNW 06:31:16 10° NNW
Cosmos 909 Rocket 4.1 06:32:17 50° SW 06:34:15 87° NW 06:41:46 10° NNE
Cosmos 2219 3.3 06:34:37 54° WSW 06:35:48 70° WNW 06:41:35 10° NNE
UNK 3.9 06:36:39 54° SE 06:37:36 72° ENE 06:42:16 10° N
Helios 1B rocket 2.9 06:34:29 10° NNE 06:38:29 50° E 06:38:41 49° ESE
Cosmos 1709 Rocket 4.4 06:37:29 41° WSW 06:38:55 48° WNW 06:45:04 10° N
Cosmos 1066 Rocket 4.3 06:34:48 10° NNW 06:40:37 66° W 06:41:47 53° SSW
MOZ.5/SAFIR/RUBIN 5/SL-8 4.3 06:47:17 42° W 06:47:17 42° W 06:51:32 10° NNW
Timation 2 Rocket 3.8 06:46:12 50° SW 06:47:51 82° WNW 06:53:58 10° NNE
Cosmos 2084 Rocket 3.4 06:48:36 10° NW 06:52:38 71° W 06:52:38 71° W
IDEFIX/ARIANE 42P 4.0 06:48:22 10° NE 06:52:56 30° E 06:55:37 19° SE
ATLAS 5 CENTAUR R/B 2.9 06:48:48 10° NW 06:54:15 40° WSW 06:54:21 40° WSW
Cosmos 2082 3.7 06:54:29 48° SSW 06:56:08 82° ESE 07:01:54 10° NNE
Cosmos 2251 Rocket 3.5 06:56:04 51° S 06:57:24 81° ESE 07:02:43 10° NNE
Meteor 1-11 Rocket 4.3 06:56:39 37° WSW 06:57:49 41° WNW 07:03:02 10° N
Cosmos 1536 4.0 06:58:20 30° WNW 06:58:20 30° WNW 07:01:38 10° NNW
Lacrosse 5 2.0 06:57:57 47° WSW 06:59:18 69° NW 07:04:23 10° NE
Cosmos 2184 Rocket 3.9 06:59:24 41° S 07:01:46 85° W 07:08:05 10° N
Resurs 1-4 Rocket 2.3 06:56:49 10° N 07:02:03 59° WNW 07:03:26 44° SW
SL-16 R/B 2.5 07:00:09 40° SSW 07:02:20 65° WSW 07:08:30 10° NNW
Cosmos 2154 Rocket 4.0 07:05:53 32° S 07:08:54 76° E 07:15:07 10° N
Cosmos 1733 Rocket 3.0 07:13:20 54° SSW 07:14:18 80° W 07:18:47 10° N
SL-8 R/B 4.1 07:15:14 42° S 07:16:03 47° SE 07:20:40 10° ENE
Cosmos 1140 Rocket 4.2 07:14:54 27° SSE 07:17:25 47° ESE 07:22:26 10° NNE
AQUA 4.0 07:15:44 10° N 07:20:25 58° WNW 07:21:46 42° SW
Cosmos 2297 Rocket 3.6 07:18:52 20° W 07:21:22 27° NW 07:26:10 10° N
NPP 4.0 07:17:00 10° N 07:22:12 50° WNW 07:24:07 35° WSW
Cosmos 2074 Rocket 4.2 07:23:14 34° SW 07:25:46 54° WNW 07:31:52 10° N
Cosmos 2237 Rocket 3.6 07:22:34 10° NW 07:26:22 21° W 07:26:22 21° W
ARIANE 5 R/B 4.0 07:26:06 10° NE 07:30:41 31° E 07:35:16 10° SSE
Okean 2 3.5 07:26:36 10° N 07:30:47 74° E 07:33:05 26° SSE
ADEOS Rocket 3.0 07:29:11 33° SSW 07:31:20 49° W 07:36:40 10° NNW
Cosmos 2227 Rocket 3.5 07:29:32 21° W 07:32:08 29° NW 07:37:03 10° N
CZ-2D R/B 3.3 07:35:32 10° N 07:40:08 30° WNW 07:42:21 22° WSW
ADEOS II 2.3 07:37:08 10° N 07:42:16 55° WNW 07:44:45 29° SW
Meteor 1-28 Rocket 3.1 07:41:29 41° SSW 07:42:34 61° W 07:46:17 10° NNW
Meteor 2-9 Rocket 4.3 07:43:10 30° SW 07:45:37 55° WNW 07:50:52 10° N
SL-8 Rocket 4.5 07:40:17 12° S 07:45:58 58° E 07:52:00 10° NNE
IRS-1D 3.5 07:41:12 10° N 07:46:08 67° WNW 07:48:42 28° SSW
NOSS 3-3 (A) 4.0 07:44:35 26° SSW 07:47:55 71° ESE 07:54:17 10° NE
NOSS 3-3 (C) 4.0 07:44:42 26° SSW 07:48:01 70° ESE 07:54:22 10° NE
EP 1 4.5 07:47:55 51° SW 07:48:37 88° NW 07:51:23 10° NE
Cosmos 2227 4.4 07:45:48 22° S 07:49:26 66° ESE 07:55:01 10° NNE
Cosmos 1782 Rocket 4.4 07:46:19 14° SSE 07:49:47 47° E 07:53:59 10° NNE
SL-16 R/B 2.7 07:45:44 10° NW 07:50:57 39° WSW 07:53:48 23° SSW
Iridium 4 Rocket 3.9 07:46:46 10° N 07:52:09 56° W 07:55:46 22° SSW
Cosmos 2263 Rocket 2.2 07:54:29 23° SSW 07:58:06 88° WNW 08:03:50 10° NNE
Cosmos 1975 3.6 07:57:16 28° WSW 07:58:38 36° WNW 08:02:27 10° N
ATLAS CENTAUR R/B 1.8 07:57:40 24° S 07:59:37 47° ESE 08:03:24 10° NE
Landsat 4 4.3 07:57:19 10° N 08:00:49 41° WNW 08:02:12 28° WSW
CZ-4C R/B 3.0 07:55:11 10° NW 08:02:37 89° SW 08:11:10 10° SSE
Cosmos 407 Rocket 3.7 08:01:06 24° SW 08:04:19 62° WNW 08:09:33 10° NNE
Cosmos 1707 2.8 08:03:58 10° NNW 08:07:42 53° W 08:10:01 21° SSW
Cosmos 1461 3.4 08:05:09 24° SW 08:07:46 57° NW 08:12:11 10° NNE
Meteor 1-29 4.4 08:07:13 10° NNW 08:09:51 22° WNW 08:10:46 20° W
Cosmos 2344 3.5 08:04:50 19° SW 08:10:27 82° NW 08:18:14 10° NE
ALOS 4.4 08:06:51 10° NE 08:10:37 23° E 08:14:20 10° SSE
GEOS 3 Rocket 4.0 08:06:22 10° SE 08:11:42 73° NE 08:17:01 10° NNW
Cosmos 2341 Rocket 4.0 08:06:43 16° SSW 08:11:50 71° W 08:18:04 10° N
Helios 1B rocket 4.5 08:10:57 10° NNW 08:13:19 15° WNW 08:14:58 12° W
Spot 1 3.8 08:09:27 10° S 08:13:37 78° WSW 08:17:43 10° NNW
In-Cosmos 22 4.2 08:08:14 10° NNW 08:14:00 69° W 08:19:40 10° S
Cosmos 2218 Rocket 4.1 08:07:57 10° S 08:14:19 81° E 08:20:41 10° N
Cosmos 1238 Rocket 3.8 08:18:43 18° W 08:19:33 20° WNW 08:22:05 10° NNW
SL-08 R/B 3.5 08:15:58 10° SSE 08:20:53 83° ENE 08:25:52 10° NNW
COSMOS 2441 4.4 08:16:49 10° N 08:21:35 67° WNW 08:25:38 14° SSW
Cosmos 1733 4.0 08:18:37 10° S 08:22:20 50° E 08:26:05 10° NNE
Cosmos 1300 Rocket 4.2 08:26:04 10° S 08:30:17 56° E 08:34:34 10° NNE
Cosmos 1943 3.2 08:24:58 10° NNW 08:30:41 76° WSW 08:36:22 10° SSE
IRS-P3 4.3 08:26:03 10° N 08:31:18 61° WNW 08:36:17 11° SSW
BREEZE-M DEB (TANK) 2.8 08:30:27 16° W 08:32:21 51° NNW 08:34:40 10° NE
IDEFIX/ARIANE 42P 3.4 08:27:51 10° N 08:32:30 34° WNW 08:36:25 14° SW
Cosmos 1975 Rocket 3.0 08:30:40 10° NNW 08:35:05 74° W 08:39:25 10° S
USA 290 3.9 08:32:27 10° N 08:35:30 37° ENE 08:38:32 10° SE
SL-24 R/B - RUBIN 2 4.0 08:31:19 10° NNW 08:36:20 73° NE 08:40:48 10° SE
CZ-3 Stage 3 3.6 08:35:39 10° SSE 08:37:21 12° SE 08:39:51 10° ESE
CZ-2C R/B 2.5 08:32:58 10° NNE 08:37:32 68° ESE 08:42:07 10° S
Cosmos 1340 2.7 08:36:17 10° NNW 08:39:57 55° W 08:43:36 10° S
USA 215 3.4 08:34:51 10° NE 08:41:24 74° SE 08:47:55 10° SW
Cosmos 1900 4.4 08:37:53 11° SSW 08:42:42 85° ESE 08:47:40 10° NNE
Lacrosse 5 3.8 08:39:09 10° WNW 08:43:05 22° NNW 08:47:01 10° NNE
Cosmos 1626 2.0 08:40:31 10° N 08:44:13 83° W 08:47:53 10° S
Cosmos 1400 Rocket 2.7 08:40:58 10° SSW 08:44:49 76° W 08:48:44 10° N
Cosmos 1674 3.3 08:46:41 10° NNW 08:50:16 38° W 08:53:49 10° SSW
Meteor 1-12 Rocket 4.4 08:45:49 10° SSW 08:51:22 58° WNW 08:57:01 10° N
Cosmos 1315 Rocket 4.4 08:48:39 10° SSE 08:52:25 37° E 08:56:12 10° NNE
BREEZE-M DEB (TANK) 3.8 08:48:17 10° WSW 08:56:12 51° NNW 08:59:00 10° NE
PSLV R/B 4.3 08:53:44 10° NNE 08:57:58 53° E 09:02:07 10° S
SL-8 R/B 4.2 08:53:50 10° W 08:58:34 58° NNW 09:03:20 10° ENE
Cosmos 1850 Rocket 4.3 08:55:43 10° S 09:01:00 73° ESE 09:06:16 10° NNE
Meteor 2-5 Rocket 4.1 08:57:40 10° N 09:03:38 76° E 09:09:27 10° SSE
Cosmos 468 Rocket 4.0 08:59:28 10° NNW 09:04:48 83° WSW 09:10:03 10° SSE
CZ-4B R/B 4.0 09:00:35 10° N 09:05:08 41° WNW 09:09:35 10° SW
Cosmos 1821 Rocket 4.0 09:01:12 10° S 09:07:22 90° NW 09:13:30 10° N
Cosmos 1025 Rocket 3.1 09:04:49 10° NNW 09:09:03 55° W 09:13:16 10° S
Cosmos 44 4.1 09:04:51 10° NW 09:09:24 32° WSW 09:13:42 10° S
ARIANE 5 R/B 3.4 09:05:08 10° N 09:09:45 34° WNW 09:14:23 10° SW
Cosmos 1844 Rocket 2.9 09:06:06 10° SSW 09:11:44 78° ESE 09:17:25 10° NNE
